Location: Archemont
(49.1579°N, 1.7598°E)
Time: 10:20:02
(UTC+00:00)

Cosmos 1340 - Pass Details

Date: 03 February 2023
Orbit: 478 x 483 km, 81.2° (Epoch: 28 March)

Event Time Altitude Azimuth Distance (km) Brightness Sun altitude
Rises 18:35:14 0° 350° (N) 2,554 6.3 -17.0°
Reaches altitude 10° 18:37:21 10° 353° (N) 1,671 5.3 -17.3°
Maximum altitude 18:41:00 68° 77° (ENE) 527 2.4 -17.9°
Drops below altitude 10° 18:44:38 10° 161° (SSE) 1,664 5.1 -18.5°
Enters shadow 18:44:45 - 161° (SSE) 1,717 5.2 -18.5°
